Regional Weather Roundup
Issued by NWS

Home | Current Version | Previous Version | Text Only | Print | Product List | Glossary On
Versions: 1 2 3 4 5 6 7 8 9 10 11 12 13 14 15 16 17 18 19 20 21 22 23 24 25 26 27 28 29 30 31 32 33 34 35 36 37 38 39 40 41 42 43 44 45 46 47 48 49 50
000
ASUS45 KTFX 230619
RWRMT
MONTANA HOURLY WEATHER ROUNDUP
NATIONAL WEATHER SERVICE GREAT FALLS MT
1219 AM MDT WED JUL 23 2014

NOTE: "FAIR" INDICATES FEW OR NO CLOUDS BELOW 12000 FEET WITH NO
SIGNIFICANT WEATHER AND/OR OBSTRUCTIONS TO VISIBILITY.

* THESE STATIONS ARE NOT UNDER NWS QUALITY CONTROL. THEY DO NOT
   REPORT WEATHER SUCH AS PRECIPITATION OR FOG.

MTZ001>007-043-230700-
WEST OF THE DIVIDE
CITY           SKY/WX    TMP DP  RH WIND       PRES   REMARKS
KALISPELL      MOCLDY    59  55  87 NE5       30.15R
MISSOULA       MOCLDY    72  48  43 NW12      30.13S
BUTTE          PTCLDY    61  46  58 CALM      30.25F
MULLAN PASS    CLOUDY    52  52 100 N8        30.30F
* ESSEX        N/A       60  53  78 SE9        N/A
* LINCOLN      N/A       64  56  75 NE3G8      N/A
* LOOKOUT PASS N/A       57  56  96 NE4        N/A
* POLSON       N/A       60  52  75 SW1        N/A
* RONAN APT    MOCLDY    64  54  70 N/A        N/A
* SEELEY LAKE  N/A       61  51  70 N2         N/A
* THOMP F APT  CLOUDY    67  36  32 N4G9       N/A
* YAAK HILL    N/A       60  56  87 NE1        N/A
$$

MTZ008-052>055-230700-
SOUTHWEST MONTANA
CITY           SKY/WX    TMP DP  RH WIND       PRES   REMARKS
BOZEMAN        MOCLDY    64  48  56 W5        30.21S
DILLON         PTCLDY    63  50  63 E6        30.20F
W YELLOWSTONE  CLEAR     48  46  93 CALM      30.35F
* THREE FORKS  MOCLDY    66  66 100 N/A        N/A
* BOULDER HILL N/A       60  44  56 S2         N/A
* MONIDA PASS  N/A       59  37  44 E2         N/A
* RAYNOLDS PAS N/A       56  41  57 S4         N/A
* WHITEHALL    N/A       66  57  73 NE4        N/A
* WISE RIVER   N/A       59  48  67 SW6        N/A
$$

MTZ009>010-012-014-046-048-049-054-230700-
EAST SLOPES AND CENTRAL MONTANA
CITY           SKY/WX    TMP DP  RH WIND       PRES   REMARKS
CUT BANK       CLEAR     63  54  73 E6        30.21F
GREAT FALLS    MOCLDY    66  57  73 SE6       30.16R
HELENA         MOCLDY    66  54  65 SW6       30.18S
MALMSTROM AFB  CLOUDY    68  57  68 SE6       30.18S
* CONRAD       PTCLDY    61  57  87 N/A        N/A
* DEARBORN     N/A       65  57  75 NE3        N/A
* EAST GLACIER N/A       54  49  83 NE1        N/A
* MONARCH      N/A       59  50  72 SE4        N/A
* PENDROY      N/A       62  52  70 N4         N/A
* ROGERS PASS  N/A       58  51  78 NW3        N/A
* SAINT MARY   N/A       49  48  96 SE3        N/A
* SWEET GRASS  N/A       63  56  78 S6         N/A
* WHITE SULPH  N/A       62  51  67 NE10G19    N/A
$$

MTZ011-013-016-021-035-040-045-047-050-051-230700-
NORTH CENTRAL MONTANA
CITY           SKY/WX    TMP DP  RH WIND       PRES   REMARKS
HAVRE          MOCLDY    70  54  57 E13G25    30.17F
LEWISTOWN      MOCLDY    63  55  75 CALM      30.28R
* FORT BENTON  CLOUDY    75  54  48 E15G24    30.14F
* CHESTER      N/A       66  55  68 N5         N/A
* DENTON       N/A       63  59  87 SW3        N/A
* GEYSER       N/A       64  58  81 N/A        N/A
* JUDITH GAP   N/A       61  58  90 SW6        N/A
* LOMA         N/A       74  53  48 E8         N/A
$$

MTZ017>020-022>027-061-062-230700-
NORTHEAST MONTANA
CITY           SKY/WX    TMP DP  RH WIND       PRES   REMARKS
GLASGOW        PTCLDY    66  55  68 E10       30.22S
GLENDIVE       CLOUDY    66  61  84 E6        30.25S
JORDAN         PTCLDY    72  55  55 E7        30.20F
SIDNEY         CLOUDY    68  59  73 SW3       30.24F
WOLF POINT     PTCLDY    64  55  73 E6        30.23S
* BEAVER HILL  N/A       64  61  90 E2         N/A
* CIRCLE       N/A       69  56  63 N/A        N/A
* LINDSAY DVD  N/A       64  60  87 E4         N/A
* NAVAJO       N/A       64  59  84 NE2        N/A
$$

MTZ028>042-056>058-230700-
SOUTHCENTRAL AND SOUTHEAST MONTANA
CITY           SKY/WX    TMP DP  RH WIND       PRES   REMARKS
BAKER          CLOUDY    66  61  84 SE10      30.25F
BILLINGS       MOCLDY    66  57  73 CALM      30.23F
LIVINGSTON     MOCLDY    64  54  70 E14       30.26F
MILES CITY     PTCLDY    70  63  79 SE7       30.18F
* LAUREL APT   PTCLDY    63  55  75 N/A        N/A
* ROUNDUP APT  PTCLDY    68  57  68 N/A        N/A
* ALZADA       N/A       66  61  84 E13G18     N/A
* HYSHAM       N/A       68  60  76 S4         N/A
* LAME DEER    N/A       64  59  84 SE9        N/A
* REED POINT   N/A       60  59  97 SW4        N/A
* ROSCOE HILL  N/A       60  45  58 S6         N/A
$$

REGIONAL REPORTS...DAKOTAS
CITY           SKY/WX    TMP DP  RH WIND       PRES   REMARKS
WILLISTON      CLOUDY    72  63  73 E9        30.24R
DICKINSON      PTCLDY    63  61  93 E3        30.26R
CROSBY         N/A       63  63 100 E3        30.27S
TIOGA          MOCLDY    64  64 100 E7        30.30R
WATFORD CITY   PTCLDY    66  63  90 E6        30.23S
BISMARCK       PTCLDY    66  61  84 E7        30.26R
GRAND FORKS    PTCLDY    61  59  93 CALM      30.25R
FARGO          CLEAR     63  57  81 W3        30.25S
BUFFALO SD     CLOUDY    63  59  87 W6        30.25R
RAPID CITY     MOCLDY    66  63  90 SW7       30.27F
$$

REGIONAL REPORTS...WYOMING/IDAHO/WASHINGTON
CITY           SKY/WX    TMP DP  RH WIND       PRES   REMARKS
GILLETTE       PTCLDY    64  57  78 CALM      30.32R
SHERIDAN       CLEAR     63  55  75 S6        30.31S
CODY           CLEAR     66  45  47 N6        30.30R
YELLOWSTONE LA CLEAR     48  43  83 CALM      30.48S
SALMON         PTCLDY    63  46  54 W3        30.07F
MULLAN PASS    CLOUDY    52  52 100 N8        30.30S
SAND POINT     CLOUDY    59  59 100 N3        30.13R
SPOKANE        MOCLDY    70  55  59 E9        30.09S
$$

REGIONAL REPORTS...ALBERTA
CITY           SKY/WX    TMP DP  RH WIND       PRES   REMARKS
CALGARY        FAIR      59  46  62 S8        30.11S
LETHBRIDGE     FAIR      59  54  84 S10       30.16F
MEDICINE HAT   CLEAR     63  57  81 NE6       30.16R
EDMONTON       MOCLDY    64  57  78 SE13      30.06F
WATERTON GATE  N/A       52  48  86 E1         N/A
CARDSTON       N/A       57  52  83 S5         N/A
$$

REGIONAL REPORTS...SASKATCHEWAN
CITY           SKY/WX    TMP DP  RH WIND       PRES   REMARKS
SWIFT CURRENT  CLOUDY    63  59  87 SE10      30.25R
REGINA         CLOUDY    64  52  65 SE9       30.29R
VAL MARIE      N/A       63  55  75 E9         N/A
ASSINIBOIA     N/A       63  57  81 E7         N/A
CORONACH       N/A       66  59  78 E6         N/A

$$



USA.gov is the U.S. government's official web portal to all federal, state and local government web resources and services.